Location: Zagreb
(45.8000°N, 16.0000°E)
Time: 19:06:31
(UTC+02:00)

Tiros 1 despin weight - All Passes

Search period start: 09 August 2020 00:00
Search period end: 19 August 2020 00:00
Orbit: 594 x 642 km, 48.2° (Epoch: 08 August)

Date Brightness Start Highest point End Pass type
(mag) Time Alt. Az. Time Alt. Az. Time Alt. Az.
09 Aug - 06:47:33 10° SSE 06:49:32 13° SE 06:51:31 10° ESE daylight
09 Aug - 08:26:00 10° SW 08:30:21 51° SSE 08:34:41 10° ENE daylight
09 Aug - 10:07:24 10° W 10:11:52 70° N 10:16:18 10° ENE daylight
09 Aug - 11:49:14 10° WNW 11:53:40 71° N 11:58:05 10° E daylight
09 Aug - 13:30:54 10° WNW 13:35:10 49° SSW 13:39:25 10° SE daylight
09 Aug - 15:14:19 10° WSW 15:15:55 12° SW 15:17:32 10° SSW daylight
10 Aug - 07:02:05 10° SSW 07:05:40 23° SE 07:09:11 10° E daylight
10 Aug - 08:42:16 10° WSW 08:46:46 78° SSE 08:51:13 10° ENE daylight
10 Aug - 10:24:01 10° W 10:28:28 63° N 10:32:52 10° E daylight
10 Aug - 12:05:45 10° WNW 12:10:13 89° NNE 12:14:39 10° ESE daylight
10 Aug - 13:47:36 10° W 13:51:27 30° SW 13:55:17 10° SSE daylight
11 Aug - 07:17:41 10° SW 07:21:53 38° SSE 07:26:03 10° E daylight
11 Aug - 08:58:45 10° WSW 09:03:16 79° NNW 09:07:43 10° ENE daylight
11 Aug - 10:40:37 10° WNW 10:45:04 65° N 10:49:28 10° E daylight
11 Aug - 12:22:17 10° WNW 12:26:41 64° SSW 12:31:02 10° SE daylight
11 Aug - 14:04:44 10° W 14:07:37 17° SW 14:10:29 10° S daylight
12 Aug - 05:54:24 10° S 05:57:17 17° SE 06:00:09 10° E daylight
12 Aug - 07:33:46 10° SW 07:38:14 62° SSE 07:42:39 10° ENE daylight
12 Aug - 09:15:21 10° W 09:19:50 66° N 09:24:16 10° ENE daylight
12 Aug - 10:57:10 10° WNW 11:01:38 77° NNE 11:06:03 10° E daylight
12 Aug - 12:38:52 10° WNW 12:43:01 40° SSW 12:47:08 10° SE daylight
13 Aug - 06:09:31 10° SSW 06:13:26 29° SE 06:17:20 10° E daylight
13 Aug - 07:50:08 10° WSW 07:54:41 89° SSE 07:59:10 10° ENE daylight
13 Aug - 09:31:59 10° W 09:36:26 63° N 09:40:51 10° E daylight
13 Aug - 11:13:41 10° WNW 11:18:09 81° SSW 11:22:33 10° ESE daylight
13 Aug - 12:55:42 10° W 12:59:16 24° SW 13:02:48 10° SSE daylight
14 Aug - 04:47:23 10° SSE 04:48:57 12° SE 04:50:31 10° ESE visible
14 Aug - 06:25:21 10° SW 06:29:44 47° SSE 06:34:03 10° ENE daylight
14 Aug - 08:06:41 10° W 08:11:13 72° N 08:15:41 10° ENE daylight
14 Aug - 09:48:33 10° WNW 09:53:02 69° N 09:57:27 10° E daylight
14 Aug - 11:30:13 10° WNW 11:34:34 53° SSW 11:38:51 10° SE daylight
14 Aug - 13:13:15 10° WSW 13:15:22 13° SW 13:17:27 10° SSW daylight
15 Aug - 05:01:35 10° S 05:05:03 21° SE 05:08:28 10° E visible
15 Aug - 06:41:34 10° WSW 06:46:07 73° SSE 06:50:36 10° ENE daylight
15 Aug - 08:23:18 10° W 08:27:48 64° N 08:32:14 10° E daylight
15 Aug - 10:05:05 10° WNW 10:09:34 85° NNE 10:14:01 10° ESE daylight
15 Aug - 11:46:53 10° W 11:50:51 32° SW 11:54:48 10° SSE daylight
16 Aug - 05:17:04 10° SSW 05:21:16 36° SE 05:25:24 10° E visible
16 Aug - 06:58:02 10° WSW 07:02:37 82° NNW 07:07:07 10° ENE daylight
16 Aug - 08:39:54 10° WNW 08:44:24 64° N 08:48:50 10° E daylight
16 Aug - 10:21:35 10° WNW 10:26:03 69° SSW 10:30:26 10° ESE daylight
16 Aug - 12:03:54 10° W 12:07:02 19° SW 12:10:09 10° S daylight
17 Aug - 03:54:00 10° S 03:56:41 15° SE 03:59:20 10° E visible
17 Aug - 05:33:05 10° SW 05:37:35 58° SSE 05:42:01 10° ENE daylight
17 Aug - 07:14:37 10° W 07:19:09 68° N 07:23:38 10° ENE daylight
17 Aug - 08:56:28 10° WNW 09:00:59 74° NNE 09:05:26 10° E daylight
17 Aug - 10:38:10 10° WNW 10:42:25 44° SSW 10:46:37 10° SE daylight
18 Aug - 04:08:58 10° SSW 04:12:49 27° SE 04:16:38 10° E visible
18 Aug - 05:49:25 10° WSW 05:54:00 84° SSE 05:58:33 10° ENE daylight
18 Aug - 07:31:14 10° W 07:35:45 63° N 07:40:12 10° E daylight
18 Aug - 09:12:59 10° WNW 09:17:30 85° SSW 09:21:57 10° ESE daylight
18 Aug - 10:54:57 10° W 10:58:40 26° SW 11:02:21 10° SSE daylight
